Jendouba, Tunisia

10:34 PM CET on October 14, 2019 (GMT +0100)
Jendouba

Weather History for DTTN - August, 2019

Change the Weather History Date:

Sunday, August 18, 2019

  Actual Average Record
Temperature  
Mean Temperature 86 °F -  
Max Temperature 104 °F 92 °F - ()
Min Temperature 69 °F 64 °F - ()
Cooling Degree Days 22    
Growing Degree Days 36 (Base 50)    
Moisture  
Dew Point 59 °F    
Average Humidity 35    
Maximum Humidity 68    
Minimum Humidity 10    
Precipitation  
Precipitation 0.00 in 0.03 in - ()
Sea Level Pressure  
Sea Level Pressure 29.89 in    
Wind  
Wind Speed 5 mph ()    
Max Wind Speed 13 mph    
Max Gust Speed -    
Visibility 6.6 miles    
Events      
T = Trace of Precipitation, MM = Missing Value Source: Averaged Metar Reports

Daily Weather History Graph

Daily Weather History Graph

Search for Another Location

Airport or City:

Astronomy

Aug. 18, 2019 Rise Set
Actual Time 5:44 AM CET 7:12 PM CET
Civil Twilight 5:17 AM CET 7:39 PM CET
Nautical Twilight 4:44 AM CET 8:12 PM CET
Astronomical Twilight 4:10 AM CET 8:46 PM CET
Moon 9:03 PM CET (8/18) 8:11 AM CET (8/18)
Length of Visible Light 14h 22m
Length of Day
13h 27m
Waning Gibbous, 92% of the Moon is Illuminated
Aug 18
Waning Gibbous
Aug 23
Last Quarter
Aug 30
New
Sep 6
First Quarter
Sep 14
Full

Hourly Weather History & Observations

Time (CET) Temp. Heat Index Dew Point Humidity Pressure Visibility Wind Dir Wind Speed Gust Speed Precip Events Conditions
12:00 AM 77.0 °F - 60.8 °F 57% 30.01 in 5.0 mi NE 3.5 mph - N/A   Unknown
6:00 AM 69.8 °F - 59.0 °F 68% 29.95 in - SW 3.5 mph - N/A   Clear
7:00 AM 75 °F - 60 °F 51% 29.95 in 9 mi Calm Calm - -  
7:00 AM 75.2 °F - 60.8 °F 61% 29.95 in - Calm Calm - N/A   Clear
9:00 AM 80.6 °F 81.8 °F 62.6 °F 54% 29.95 in - Variable 2.3 mph - N/A   Clear
10:00 AM 86.0 °F 87.3 °F 64.4 °F 48% 29.95 in - NE 4.6 mph - N/A   Clear
11:00 AM 89.6 °F 90.1 °F 62.6 °F 40% 29.95 in - North 3.5 mph - N/A   Clear
12:00 PM 96.8 °F 97.1 °F 60.8 °F 30% 29.92 in - Variable 2.3 mph - N/A   Clear
1:00 PM 99 °F - 58 °F 17% 29.88 in 9 mi SSW 2.3 mph - -  
1:00 PM 98.6 °F 97.6 °F 57.2 °F 25% 29.89 in - SSW 2.3 mph - N/A   Clear
2:00 PM 100.4 °F 98.4 °F 53.6 °F 21% 29.89 in 6.2 mi NE 6.9 mph - N/A   Partly Cloudy
3:00 PM 104.0 °F - 51.8 °F 17% 29.86 in - NE 8.1 mph - N/A   Unknown
4:00 PM 103 °F - 51 °F 10% 29.81 in 9 mi North 6.9 mph - -   Scattered Clouds
4:00 PM 102.2 °F - 51.8 °F 18% 29.83 in 6.2 mi North 6.9 mph - N/A   Partly Cloudy
5:00 PM 104.0 °F 102.3 °F 53.6 °F 19% 29.83 in 6.2 mi NE 6.9 mph - N/A   Partly Cloudy
6:00 PM 102.2 °F 100.4 °F 53.6 °F 20% 29.83 in 6.2 mi ENE 10.4 mph - N/A   Partly Cloudy
7:00 PM 98 °F - 55 °F 15% 29.81 in 9 mi NE 11.5 mph - -   Scattered Clouds
7:00 PM 98.6 °F 97.2 °F 55.4 °F 24% 29.83 in 6.2 mi NE 11.5 mph - N/A   Partly Cloudy
8:00 PM 93.2 °F 96.2 °F 66.2 °F 41% 29.83 in 6.2 mi NE 10.4 mph - N/A   Partly Cloudy
9:00 PM 87.8 °F 90.4 °F 66.2 °F 49% 29.89 in 6.2 mi NE 12.7 mph - N/A   Partly Cloudy
10:00 PM 86 °F - 64 °F 37% 29.88 in 5 mi NE 12.7 mph - -  
10:00 PM 86.0 °F 86.6 °F 62.6 °F 45% 29.89 in 5.0 mi NE 12.7 mph - N/A   Unknown
11:00 PM 84.2 °F 85.0 °F 62.6 °F 48% 29.92 in 5.0 mi NE 6.9 mph - N/A   Unknown